UAL1523 KDEN-KEGE

Flight info

Callsign UAL1523
Flight time 0h 26m
Altitude 22000
Route ZIMMR4 ZIMMR CULCH
Aircraft B752/M-SDE2E3FGHIJ3J4J7RWXY/LB1

Departure

Time 2026-05-07 00:00
Airport Denver International Airport (KDEN)

Arrival

Time 2026-05-07 00:26
Airport Eagle County Regional Airport (KEGE)
Time Latitude Longitude Altitude Speed Heading
2026-05-06 23:26 39.85943 -104.67950 5363 ft 0 kts 180°
2026-05-06 23:50 39.85952 -104.67950 5363 ft 2 kts 180°
2026-05-06 23:51 39.85967 -104.67950 5363 ft 2 kts 180°
2026-05-06 23:51 39.85982 -104.67950 5363 ft 2 kts 180°
2026-05-06 23:51 39.85997 -104.67950 5362 ft 2 kts 180°
2026-05-06 23:51 39.86012 -104.67950 5362 ft 2 kts 180°
2026-05-06 23:52 39.86026 -104.67950 5362 ft 1 kts 180°
2026-05-06 23:52 39.86028 -104.67950 5362 ft 0 kts 180°
2026-05-06 23:55 39.86017 -104.67995 5358 ft 13 kts 277°
2026-05-06 23:55 39.86018 -104.68183 5347 ft 27 kts 282°
2026-05-06 23:56 39.86004 -104.68386 5335 ft 19 kts 203°
2026-05-06 23:56 39.85903 -104.68394 5335 ft 12 kts 182°
2026-05-06 23:56 39.85823 -104.68398 5335 ft 10 kts 181°
2026-05-06 23:56 39.85714 -104.68399 5334 ft 21 kts 180°
2026-05-06 23:57 39.85517 -104.68401 5328 ft 34 kts 179°
2026-05-06 23:57 39.85289 -104.68404 5324 ft 25 kts 180°
2026-05-06 23:57 39.85208 -104.68501 5314 ft 16 kts 269°
2026-05-06 23:57 39.85204 -104.68673 5303 ft 21 kts 267°
2026-05-06 23:58 39.85199 -104.68935 5292 ft 39 kts 268°
2026-05-06 23:58 39.85199 -104.69319 5291 ft 42 kts 271°
2026-05-06 23:58 39.85205 -104.69597 5301 ft 19 kts 282°
2026-05-06 23:58 39.85310 -104.69659 5297 ft 19 kts
2026-05-06 23:59 39.85550 -104.69656 5284 ft 68 kts
2026-05-06 23:59 39.86326 -104.69647 5267 ft 150 kts
2026-05-06 23:59 39.87566 -104.69650 5495 ft 200 kts 360°
2026-05-06 23:59 39.89095 -104.69624 5938 ft 244 kts
2026-05-07 00:00 39.90851 -104.69933 6870 ft 259 kts 332°
2026-05-07 00:00 39.92157 -104.71407 7951 ft 256 kts 304°
2026-05-07 00:00 39.92831 -104.73602 8480 ft 275 kts 278°
2026-05-07 00:00 39.92965 -104.76061 9444 ft 278 kts 274°
2026-05-07 00:01 39.93046 -104.78595 10124 ft 287 kts 274°
2026-05-07 00:01 39.93103 -104.81243 10114 ft 287 kts 273°
2026-05-07 00:01 39.93138 -104.83772 10102 ft 277 kts 273°
2026-05-07 00:01 39.93166 -104.86261 10106 ft 277 kts 272°
2026-05-07 00:02 39.93191 -104.88797 10110 ft 281 kts 272°
2026-05-07 00:02 39.93225 -104.91337 10173 ft 284 kts 274°
2026-05-07 00:02 39.93292 -104.93908 11087 ft 285 kts 274°
2026-05-07 00:02 39.93351 -104.96424 12163 ft 282 kts 274°
2026-05-07 00:03 39.93412 -104.98981 13007 ft 287 kts 274°
2026-05-07 00:03 39.93473 -105.01588 13909 ft 290 kts 274°
2026-05-07 00:03 39.93533 -105.04176 14749 ft 293 kts 275°
2026-05-07 00:03 39.93594 -105.06864 15529 ft 299 kts 276°
2026-05-07 00:04 39.93653 -105.09534 16313 ft 303 kts 277°
2026-05-07 00:04 39.93715 -105.12290 17059 ft 308 kts 278°
2026-05-07 00:04 39.93776 -105.15054 17874 ft 310 kts 278°
2026-05-07 00:04 39.93840 -105.17915 18459 ft 319 kts 278°
2026-05-07 00:05 39.93901 -105.20760 19187 ft 323 kts 279°
2026-05-07 00:05 39.93955 -105.23795 19251 ft 347 kts 281°
2026-05-07 00:05 39.94239 -105.27017 19290 ft 368 kts 283°
2026-05-07 00:05 39.94541 -105.30373 19666 ft 382 kts 282°
2026-05-07 00:06 39.94821 -105.33786 20122 ft 378 kts 283°
2026-05-07 00:06 39.95097 -105.37193 20104 ft 378 kts 282°
2026-05-07 00:06 39.95369 -105.40585 20097 ft 376 kts 283°
2026-05-07 00:06 39.95633 -105.43912 20110 ft 374 kts 283°
2026-05-07 00:07 39.95901 -105.47306 20116 ft 375 kts 283°
2026-05-07 00:07 39.96164 -105.50665 20122 ft 376 kts 283°
2026-05-07 00:07 39.96429 -105.54069 20104 ft 373 kts 283°
2026-05-07 00:07 39.96685 -105.57388 20132 ft 376 kts 283°
2026-05-07 00:08 39.96947 -105.60792 20110 ft 378 kts 283°
2026-05-07 00:08 39.97206 -105.64195 20112 ft 376 kts 283°
2026-05-07 00:08 39.97438 -105.67594 20111 ft 379 kts 281°
2026-05-07 00:08 39.97628 -105.71036 20106 ft 379 kts 281°
2026-05-07 00:09 39.97814 -105.74403 20101 ft 376 kts 281°
2026-05-07 00:09 39.98005 -105.77831 20096 ft 378 kts 281°
2026-05-07 00:09 39.98194 -105.81225 20119 ft 380 kts 281°
2026-05-07 00:09 39.98380 -105.84637 20120 ft 379 kts 281°
2026-05-07 00:10 39.98567 -105.88043 20137 ft 379 kts 281°
2026-05-07 00:10 39.98755 -105.91500 20142 ft 379 kts 281°
2026-05-07 00:10 39.98939 -105.94890 20157 ft 380 kts 281°
2026-05-07 00:10 39.99125 -105.98338 19977 ft 384 kts 281°
2026-05-07 00:11 39.99311 -106.01823 19321 ft 382 kts 281°
2026-05-07 00:11 39.99491 -106.05213 18655 ft 380 kts 281°
2026-05-07 00:11 39.99673 -106.08665 17925 ft 380 kts 281°
2026-05-07 00:11 39.99854 -106.12043 17188 ft 379 kts 279°
2026-05-07 00:12 40.00032 -106.15456 16442 ft 378 kts 278°
2026-05-07 00:12 40.00206 -106.18810 16059 ft 366 kts 278°
2026-05-07 00:12 40.00371 -106.22067 15785 ft 352 kts 278°
2026-05-07 00:12 40.00532 -106.25206 15555 ft 339 kts 278°
2026-05-07 00:13 40.00681 -106.28185 15538 ft 320 kts 279°
2026-05-07 00:13 40.00821 -106.30959 15540 ft 302 kts 279°
2026-05-07 00:13 40.00954 -106.33614 15550 ft 284 kts 279°
2026-05-07 00:13 40.01080 -106.36093 15552 ft 268 kts 279°
2026-05-07 00:14 40.01197 -106.38447 15556 ft 251 kts 280°
2026-05-07 00:14 40.01308 -106.40662 15552 ft 241 kts 280°
2026-05-07 00:14 40.01102 -106.42909 15589 ft 267 kts 254°
2026-05-07 00:14 40.00066 -106.44977 15380 ft 279 kts 225°
2026-05-07 00:15 39.98526 -106.46453 15112 ft 267 kts 221°
2026-05-07 00:15 39.97068 -106.47821 14845 ft 253 kts 222°
2026-05-07 00:15 39.95694 -106.49148 14650 ft 237 kts 223°
2026-05-07 00:15 39.94434 -106.50373 14470 ft 220 kts 223°
2026-05-07 00:16 39.93219 -106.51563 14210 ft 214 kts 224°
2026-05-07 00:16 39.92058 -106.52706 14053 ft 211 kts 223°
2026-05-07 00:16 39.90859 -106.53890 13897 ft 218 kts 222°
2026-05-07 00:16 39.89659 -106.55071 13718 ft 218 kts 223°
2026-05-07 00:17 39.88458 -106.56251 13535 ft 214 kts 222°
2026-05-07 00:17 39.87278 -106.57411 13326 ft 209 kts 222°
2026-05-07 00:17 39.86161 -106.58505 13232 ft 197 kts 222°
2026-05-07 00:17 39.85070 -106.59577 13069 ft 197 kts 223°
2026-05-07 00:18 39.83972 -106.60660 12892 ft 197 kts 223°
2026-05-07 00:18 39.82817 -106.61612 12732 ft 202 kts 203°
2026-05-07 00:18 39.81433 -106.61941 12578 ft 207 kts 190°
2026-05-07 00:18 39.79984 -106.62194 12352 ft 206 kts 192°
2026-05-07 00:19 39.78603 -106.62433 12144 ft 199 kts 191°
2026-05-07 00:19 39.77203 -106.62672 11956 ft 203 kts 190°
2026-05-07 00:19 39.75799 -106.62904 11748 ft 205 kts 191°
2026-05-07 00:19 39.74384 -106.63136 11537 ft 203 kts 191°
2026-05-07 00:20 39.73005 -106.63361 11338 ft 199 kts 191°
2026-05-07 00:20 39.71623 -106.63585 11153 ft 197 kts 191°
2026-05-07 00:20 39.70291 -106.63876 10945 ft 185 kts 205°
2026-05-07 00:20 39.69348 -106.64755 10729 ft 153 kts 233°
2026-05-07 00:21 39.68644 -106.65692 10600 ft 142 kts 231°
2026-05-07 00:21 39.67936 -106.66644 10580 ft 156 kts 231°
2026-05-07 00:21 39.67174 -106.67702 10366 ft 162 kts 233°
2026-05-07 00:21 39.66762 -106.68972 10108 ft 146 kts 268°
2026-05-07 00:22 39.66631 -106.70230 10061 ft 141 kts 266°
2026-05-07 00:22 39.66479 -106.71523 10060 ft 149 kts 265°
2026-05-07 00:22 39.66323 -106.72908 9812 ft 155 kts 265°
2026-05-07 00:22 39.66171 -106.74247 9524 ft 148 kts 265°
2026-05-07 00:23 39.66026 -106.75556 9269 ft 144 kts 264°
2026-05-07 00:23 39.65885 -106.76842 9062 ft 145 kts 264°
2026-05-07 00:23 39.65743 -106.78143 8855 ft 147 kts 264°
2026-05-07 00:23 39.65600 -106.79452 8614 ft 146 kts 264°
2026-05-07 00:24 39.65459 -106.80752 8365 ft 145 kts 264°
2026-05-07 00:24 39.65318 -106.82039 8124 ft 144 kts 263°
2026-05-07 00:24 39.65179 -106.83321 7901 ft 144 kts 263°
2026-05-07 00:24 39.65040 -106.84595 7665 ft 144 kts 263°
2026-05-07 00:25 39.64899 -106.85873 7422 ft 144 kts 263°
2026-05-07 00:25 39.64755 -106.87161 7116 ft 145 kts 262°
2026-05-07 00:25 39.64619 -106.88432 6867 ft 140 kts 262°
2026-05-07 00:25 39.64484 -106.89665 6691 ft 141 kts 262°
2026-05-07 00:26 39.64346 -106.90932 6576 ft 140 kts 262°
2026-05-07 00:26 39.64246 -106.91904 6575 ft 76 kts 262°
2026-05-07 00:26 39.64177 -106.92526 6575 ft 59 kts 261°
2026-05-07 00:26 39.64113 -106.92788 6575 ft 19 kts 198°
2026-05-07 00:27 39.64044 -106.92719 6575 ft 12 kts 88°
2026-05-07 00:27 39.64054 -106.92621 6575 ft 10 kts 83°
2026-05-07 00:27 39.64064 -106.92528 6575 ft 12 kts 82°
2026-05-07 00:27 39.64080 -106.92385 6575 ft 19 kts 82°
2026-05-07 00:28 39.64100 -106.92191 6575 ft 22 kts 82°
2026-05-07 00:28 39.64120 -106.92011 6575 ft 21 kts 80°
2026-05-07 00:29 39.64140 -106.91863 6575 ft 23 kts 81°
2026-05-07 00:29 39.64161 -106.91640 6575 ft 25 kts 82°
2026-05-07 00:30 39.64156 -106.91260 6575 ft 0 kts 261°
2026-05-07 00:30 39.64151 -106.91290 6575 ft 8 kts 253°
2026-05-07 00:30 39.64133 -106.91359 6575 ft 4 kts 238°
2026-05-07 00:30 39.64097 -106.91380 6575 ft 2 kts 180°
2026-05-07 00:31 39.64080 -106.91377 6575 ft 0 kts 172°